SCP
-0 -0 -0 0 0 0 0 0 0 -0 -0 -0 -0 -0 0 0 0 0 0 0 0 0 0 0 0 0 0
-0 -0 -0 -0 -0 0 0 0 0 0 0 0 0 0 0 0 0 0 0 0 0 0 0 0 0 0 0
-0 -0 -0 -0 -0 -0 0 0 0 0 0 0 0 0 0 0 0 0 0 0 0 0 0 0 0 0 0
0 0 0 0 0 -0 -0 0 0 0 0 0 0 0 0 0 0 0 0 0 0 0 0 0 0 0 0
0 0 0 0 0 0 0 0 0 0 0 0 0 0 0 0 0 0 0 0 0 0 0 0 0 0 0
0 0 0 0 0 0 0 0 0 0 0 0 0 0 0 0 0 0 0 0 0 0 0 0 0 0 0
0 0 0 0 0 0 0 0 0 0 0 0 0 0 0 0 0 0 0 0 0 0 0 0 0 0 0
0 0 0 0 0 0 0 0 0 0 0 0 0 0 0 0 0 0 0 0 0 0 0 0 0 0 0
0 0 0 0 0 0 0 0 0 0 0 0 0 0 0 0 0 0 0 0 0 0 0 0 0 0 0
0 0 0 0 0 0 0 0 0 0 0 0 0 0 0 0 0 0 0 0 0 0 0 0 0 0 0
0 0 0 0 0 0 0 0 0 0 0 0 0 0 0 0 0 0 0 0 0 0 0 0 0 0 0
0 0 0 0 0 0 0 0 0 0 0 0 0 0 0 0 0 0 0 0 0 0 0 0 0 0 0
0 0 0 0 0 0 0 0 0 0 0 0 0 0 0 0 0 0 0 0 0 0 0 0 0 0 0
0 0 0 0 0 0 0 0 0 0 0 0 0 0 0 0 0 0 0 0 0 0 0 0 0 0 0
0 0 0 0 0 0 0 0 0 0 0 0 0 0 0 0 0 0 0 0 0 0 0 0 0 0 0
0 0 0 0 0 0 0 0 0 0 0 0 0 0 0 0 0 0 0 0 0 0 0 0 0 0 0
Wind_Speed_500mb
19 17 16 17 16 15 17 21 23 23 16 14 12 12 12 12 11 14 13 12 11 12 15 12 14 12 7
23 21 20 19 20 19 16 25 25 28 23 21 17 15 17 16 14 13 13 13 13 13 13 12 11 8 9
27 26 26 24 24 23 21 19 25 30 27 27 23 26 23 21 19 18 17 17 17 16 16 14 11 11 10
25 28 33 31 29 28 25 23 23 25 33 34 32 32 29 26 24 24 24 23 21 20 19 18 17 17 16
29 29 34 36 37 35 32 29 28 29 30 40 38 37 34 31 30 32 31 29 27 25 24 24 22 21 20
40 38 38 38 41 44 41 37 35 34 35 36 42 43 40 38 37 37 37 35 33 32 31 30 28 26 24
50 48 46 46 46 44 47 47 45 42 40 39 41 45 47 46 44 40 41 41 40 39 38 37 36 33 31
54 56 56 54 53 52 49 49 51 51 48 45 46 46 47 49 50 48 46 45 45 46 46 45 43 41 39
55 56 60 60 61 61 56 53 52 54 55 52 51 51 49 47 51 54 55 55 56 55 55 52 51 48 47
57 57 59 61 64 67 65 58 57 56 57 60 60 57 52 50 51 57 59 61 62 62 62 59 58 57 54
56 59 65 66 68 68 70 66 61 60 61 61 64 63 60 57 58 59 61 63 67 66 67 65 66 66 64
65 67 70 71 74 72 72 71 67 66 65 66 65 67 67 65 66 66 66 67 69 72 71 70 73 72 74
57 68 77 80 78 76 73 69 73 74 69 68 69 72 72 72 71 70 72 72 70 73 74 78 79 78 82
52 56 63 71 72 71 71 68 69 67 66 69 71 76 78 76 74 77 78 78 78 78 77 72 66 72 82
46 44 48 55 64 68 71 71 64 62 64 66 68 72 77 81 80 79 80 81 84 86 82 66 31 36 50
37 38 43 48 56 58 62 66 66 64 66 68 68 69 75 77 80 82 83 81 80 86 89 91 87 81 50
Wind_Direction_500mb
255 261 261 269 270 266 253 222 222 225 226 214 202 226 231 201 197 172 179 186 191 188 186 189 169 194 197
265 263 265 261 262 269 268 249 248 214 218 228 239 240 235 223 218 205 200 206 217 218 216 208 200 230 222
263 263 263 265 262 262 271 264 245 225 229 235 245 247 240 229 223 221 217 221 228 230 233 239 239 247 255
271 270 265 263 264 266 266 266 264 250 245 241 243 253 237 233 225 229 231 232 235 238 240 242 247 257 262
279 273 270 266 265 263 263 266 266 265 253 244 248 251 246 243 236 231 236 239 242 245 245 246 248 256 262
276 274 271 270 271 266 262 261 262 264 265 257 251 253 254 252 251 243 241 244 246 248 252 253 253 254 257
276 275 272 270 271 274 272 263 259 259 264 265 262 258 257 254 253 252 248 248 249 252 254 257 258 258 256
280 278 275 273 271 271 269 270 268 264 261 263 264 263 260 259 258 257 254 253 253 255 255 257 259 260 260
277 278 276 275 273 269 269 270 268 270 266 262 263 263 264 263 261 259 257 255 254 255 256 257 260 261 262
275 278 277 277 277 274 272 269 268 269 270 268 263 263 265 263 263 259 259 258 259 258 259 259 260 262 263
277 278 276 274 272 272 272 273 270 267 266 268 270 266 265 264 263 263 258 258 261 262 263 263 262 262 264
273 272 268 269 268 268 271 272 274 270 266 266 268 271 267 262 264 262 261 262 262 266 266 267 266 264 263
274 273 271 268 270 273 273 276 274 273 271 269 268 269 268 265 263 266 266 264 266 265 267 270 268 267 265
275 274 277 279 273 272 274 273 275 278 279 273 269 267 268 267 267 264 262 262 263 265 262 266 275 276 270
273 273 279 279 273 271 270 272 276 280 282 282 278 273 269 269 268 268 268 265 265 267 268 253 263 262 281
262 266 277 283 284 284 283 282 281 282 284 285 285 280 278 274 270 269 270 270 266 263 265 267 262 258 269
Wind_Speed_850mb
19 17 16 17 16 15 17 21 23 23 16 14 12 12 12 12 11 14 13 12 11 12 15 12 14 12 7
23 21 20 19 20 19 16 25 25 28 23 21 17 15 17 16 14 13 13 13 13 13 13 12 11 8 9
27 26 26 24 24 23 21 19 25 30 27 27 23 26 23 21 19 18 17 17 17 16 16 14 11 11 10
25 28 33 31 29 28 25 23 23 25 33 34 32 32 29 26 24 24 24 23 21 20 19 18 17 17 16
29 29 34 36 37 35 32 29 28 29 30 40 38 37 34 31 30 32 31 29 27 25 24 24 22 21 20
40 38 38 38 41 44 41 37 35 34 35 36 42 43 40 38 37 37 37 35 33 32 31 30 28 26 24
50 48 46 46 46 44 47 47 45 42 40 39 41 45 47 46 44 40 41 41 40 39 38 37 36 33 31
54 56 56 54 53 52 49 49 51 51 48 45 46 46 47 49 50 48 46 45 45 46 46 45 43 41 39
55 56 60 60 61 61 56 53 52 54 55 52 51 51 49 47 51 54 55 55 56 55 55 52 51 48 47
57 57 59 61 64 67 65 58 57 56 57 60 60 57 52 50 51 57 59 61 62 62 62 59 58 57 54
56 59 65 66 68 68 70 66 61 60 61 61 64 63 60 57 58 59 61 63 67 66 67 65 66 66 64
65 67 70 71 74 72 72 71 67 66 65 66 65 67 67 65 66 66 66 67 69 72 71 70 73 72 74
57 68 77 80 78 76 73 69 73 74 69 68 69 72 72 72 71 70 72 72 70 73 74 78 79 78 82
52 56 63 71 72 71 71 68 69 67 66 69 71 76 78 76 74 77 78 78 78 78 77 72 66 72 82
46 44 48 55 64 68 71 71 64 62 64 66 68 72 77 81 80 79 80 81 84 86 82 66 31 36 50
37 38 43 48 56 58 62 66 66 64 66 68 68 69 75 77 80 82 83 81 80 86 89 91 87 81 50
Wind_Direction_850mb
255 261 261 269 270 266 253 222 222 225 226 214 202 226 231 201 197 172 179 186 191 188 186 189 169 194 197
265 263 265 261 262 269 268 249 248 214 218 228 239 240 235 223 218 205 200 206 217 218 216 208 200 230 222
263 263 263 265 262 262 271 264 245 225 229 235 245 247 240 229 223 221 217 221 228 230 233 239 239 247 255
271 270 265 263 264 266 266 266 264 250 245 241 243 253 237 233 225 229 231 232 235 238 240 242 247 257 262
279 273 270 266 265 263 263 266 266 265 253 244 248 251 246 243 236 231 236 239 242 245 245 246 248 256 262
276 274 271 270 271 266 262 261 262 264 265 257 251 253 254 252 251 243 241 244 246 248 252 253 253 254 257
276 275 272 270 271 274 272 263 259 259 264 265 262 258 257 254 253 252 248 248 249 252 254 257 258 258 256
280 278 275 273 271 271 269 270 268 264 261 263 264 263 260 259 258 257 254 253 253 255 255 257 259 260 260
277 278 276 275 273 269 269 270 268 270 266 262 263 263 264 263 261 259 257 255 254 255 256 257 260 261 262
275 278 277 277 277 274 272 269 268 269 270 268 263 263 265 263 263 259 259 258 259 258 259 259 260 262 263
277 278 276 274 272 272 272 273 270 267 266 268 270 266 265 264 263 263 258 258 261 262 263 263 262 262 264
273 272 268 269 268 268 271 272 274 270 266 266 268 271 267 262 264 262 261 262 262 266 266 267 266 264 263
274 273 271 268 270 273 273 276 274 273 271 269 268 269 268 265 263 266 266 264 266 265 267 270 268 267 265
275 274 277 279 273 272 274 273 275 278 279 273 269 267 268 267 267 264 262 262 263 265 262 266 275 276 270
273 273 279 279 273 271 270 272 276 280 282 282 278 273 269 269 268 268 268 265 265 267 268 253 263 262 281
262 266 277 283 284 284 283 282 281 282 284 285 285 280 278 274 270 269 270 270 266 263 265 267 262 258 269